Flag for Algeria Weather past 2 weeks in Constantine, Algeria

Now
43 °F

Light rain. Partly cloudy.


Feels Like: 33 °F
Forecast: 37 / 54 °F
Wind: 24 mph from Northwest

Location: Constantine Airport

Current Time: Feb 28, 2015 at 7:10:30 AM

Latest Report: Feb 28, 2015 at 6:30 AM


Visibility: 4 mi

Pressure: 29.98 "Hg

Humidity: 93%

Dew point: 41 °F

Location of ConstantineLocation

Historic Weather in Constantine — Graph

°F

Constantine temperature yesterday

Maximum temperature yesterday: 48 °F (at 1:30 PM)
Minimum temperature yesterday: 34 °F (at 5:30 AM)
Average temperature yesterday: 42 °F

Past Weeks' High & Low Weather Summary

 TemperatureHumidityPressure
High57 °F (Feb 13, 1:30 PM)100% (Feb 13, 9:00 AM)30.33 "Hg (Feb 13, 9:00 AM)
Low34 °F (Feb 19, 7:00 AM)44% (Feb 23, 3:00 PM)29.47 "Hg (Feb 22, 3:00 AM)
Average44 °F81%29.97 "Hg
* Reported Feb 13 7:00 AM — Feb 28 6:00 AM, Constantine, Weather by CustomWeather, © 2015

Note: Actual official high and low records may vary slightly from our data, if they occured in-between our weather recording intervals... More about our weather records

Advertising

Constantine weather history for previous 24 hours

 ConditionsComfort  
Time TempWeatherWind HumidityBarometerVisibility
6:00 AM
Sat, Feb 28
43 °FLight rain. Partly cloudy.18 mph93%29.98 "Hg4 mi
5:30 AM41 °FLight rain. Partly cloudy.14 mph93%29.98 "Hg4 mi
4:30 AM41 °FLight rain. Partly cloudy.8 mph87%29.95 "Hg4 mi
4:00 AM41 °FLight rain. Partly cloudy.8 mph87%29.98 "Hg4 mi
3:30 AM41 °FPartly cloudy.7 mph87%29.98 "Hg4 mi
3:00 AM41 °FPartly cloudy.7 mph87%29.98 "Hg4 mi
2:30 AM41 °FLight rain. Partly cloudy.12 mph87%29.98 "Hg4 mi
2:00 AM41 °FLight rain. Partly cloudy.12 mph87%29.98 "Hg4 mi
1:30 AM41 °FLight rain. Passing clouds.5 mph87%29.98 "Hg4 mi
1:00 AM41 °FPassing clouds.5 mph87%29.98 "Hg5 mi
12:30 AM41 °FPassing clouds.9 mph87%29.98 "Hg5 mi
12:00 AM41 °FPassing clouds.9 mph87%29.98 "HgN/A
11:30 PM
Fri, Feb 27
41 °FPassing clouds.7 mph87%29.98 "HgN/A
11:00 PM41 °FPassing clouds.7 mph87%29.98 "HgN/A
10:30 PM41 °FPassing clouds.6 mph87%29.98 "HgN/A
10:00 PM41 °FPassing clouds.No wind87%29.98 "HgN/A
9:30 PM41 °FPassing clouds.No wind87%29.98 "Hg5 mi
9:00 PM41 °FPassing clouds.7 mph87%29.98 "Hg5 mi
8:30 PM43 °FLight rain. Partly cloudy.18 mph87%29.98 "Hg5 mi
8:00 PM43 °FLight rain. Partly cloudy.9 mph93%29.98 "Hg4 mi
7:30 PM43 °FPartly cloudy.9 mph93%29.95 "Hg4 mi
7:00 PM43 °FPartly cloudy.9 mph93%29.95 "Hg4 mi
6:30 PM43 °FRain. Partly cloudy.14 mph93%29.92 "Hg4 mi
6:00 PM45 °FLight rain. Broken clouds.9 mph93%29.92 "Hg4 mi
5:30 PM46 °FLight rain. Broken clouds.5 mph87%29.89 "Hg4 mi
5:00 PM48 °FLight rain. Broken clouds.5 mph82%29.89 "Hg5 mi
4:30 PM48 °FBroken clouds.3 mph82%29.89 "HgN/A
4:00 PM48 °FBroken clouds.No wind82%29.89 "HgN/A
3:30 PM48 °FBroken clouds.2 mph82%29.89 "HgN/A
3:00 PM48 °FBroken clouds.9 mph82%29.92 "Hg5 mi
2:30 PM46 °FBroken clouds.9 mph87%29.92 "Hg5 mi
2:00 PM48 °FPartly sunny.9 mph82%29.95 "Hg5 mi
1:30 PM48 °FBroken clouds.12 mph82%29.95 "Hg5 mi
1:00 PM46 °FBroken clouds.12 mph87%29.95 "Hg5 mi
12:30 PM46 °FBroken clouds.12 mph87%29.98 "Hg5 mi
12:00 PM46 °FBroken clouds.6 mph87%29.98 "Hg5 mi
11:30 AM45 °FBroken clouds.8 mph87%29.98 "Hg5 mi
11:00 AM43 °FBroken clouds.12 mph87%29.98 "Hg4 mi
10:30 AM43 °FLight rain. Partly sunny.12 mph87%29.98 "Hg4 mi
10:00 AM43 °FLight rain. Partly sunny.12 mph87%29.98 "Hg4 mi
9:30 AM41 °FLight rain. Partly sunny.12 mph87%29.98 "Hg4 mi
9:00 AM41 °FLight rain. Broken clouds.12 mph87%29.98 "Hg4 mi
8:30 AM39 °FLight rain. Broken clouds.9 mph87%29.95 "Hg4 mi
8:00 AM39 °FLight rain. Broken clouds.9 mph87%29.95 "Hg5 mi
7:30 AM39 °FLight rain. Broken clouds.5 mph93%29.95 "Hg5 mi
7:00 AM37 °FPartly cloudy.5 mph93%29.95 "Hg5 mi
Weather by CustomWeather, © 2015

See weather overviewHow to use our weather pages